Change the Weather History Date:

Sunday, May 12, 2013

  Actual Average (KILM) Record (KILM)
Temperature  
Mean Temperature 70 °F 69 °F  
Max Temperature 79 °F 80 °F 96 °F (1967)
Min Temperature 62 °F 59 °F 45 °F (1969)
Degree Days  
Heating Degree Days 0 1  
Month to date heating degree days 18  
Since 1 July heating degree days 2400  
Cooling Degree Days 6 5  
Month to date cooling degree days 53  
Year to date cooling degree days 141  
Growing Degree Days 20 (Base 50)    
Moisture  
Dew Point 55 °F    
Average Humidity 59    
Maximum Humidity 97    
Minimum Humidity 31    
Precipitation  
Precipitation 0.01 in 0.13 in 2.80 in (1871)
Month to date precipitation 1.48  
Year to date precipitation 15.89  
Sea Level Pressure  
Sea Level Pressure 29.88 in    
Wind  
Wind Speed 5 mph (West)    
Max Wind Speed 13 mph    
Max Gust Speed 21 mph    
Visibility 10 miles    
Events Rain    
T = Trace of Precipitation, MM = Missing Value Source: NWS Daily Summary

Daily Weather History Graph

Daily Weather History Graph

Search for Another Location

Airport or City:

Trip Planner

Search our weather history database for the weather conditions in past years. The results will help you decide how hot, cold, wet, or windy it might be!

Date:

Astronomy

May. 12, 2013 Rise Set
Actual Time 6:13 AM EDT 8:08 PM EDT
Civil Twilight 5:46 AM EDT 8:35 PM EDT
Nautical Twilight 5:12 AM EDT 9:09 PM EDT
Astronomical Twilight 4:36 AM EDT 9:45 PM EDT
Moon 8:08 AM EDT (5/12) 10:32 PM EDT (5/12)
Length of Visible Light 14h 49m
Length of Day
13h 54m
Waxing Crescent, 6% of the Moon is Illuminated
May 12
Waxing Crescent
May 18
First Quarter
May 25
Full
May 31
Last Quarter
Jun 8
New

Hourly Weather History & Observations

Time (EDT) Temp. Dew Point Humidity Pressure Visibility Wind Dir Wind Speed Gust Speed Precip Events Conditions
12:15 AM 71.8 °F 63.7 °F 76% 29.85 in 10.0 mi South 6.9 mph - N/A   Scattered Clouds
12:35 AM 71.6 °F 63.7 °F 76% 29.85 in 10.0 mi SSW 6.9 mph - N/A   Clear
12:55 AM 70.9 °F 63.5 °F 77% 29.84 in 10.0 mi SSW 5.8 mph - N/A   Clear
1:15 AM 70.9 °F 63.7 °F 78% 29.84 in 10.0 mi SW 4.6 mph - N/A   Clear
1:35 AM 70.7 °F 64.0 °F 79% 29.84 in 10.0 mi SSW 4.6 mph - N/A   Clear
1:55 AM 70.0 °F 63.9 °F 81% 29.84 in 10.0 mi SSW 4.6 mph - N/A   Clear
2:15 AM 69.8 °F 64.0 °F 82% 29.83 in 10.0 mi SSW 4.6 mph - N/A   Scattered Clouds
2:35 AM 70.0 °F 64.4 °F 82% 29.83 in 10.0 mi SSW 3.5 mph - N/A   Mostly Cloudy
2:55 AM 69.8 °F 64.4 °F 83% 29.82 in 10.0 mi Calm Calm - N/A   Overcast
3:35 AM 69.8 °F 65.7 °F 87% 29.82 in 10.0 mi SSW 4.6 mph - N/A Rain Light Rain
3:55 AM 68.9 °F 65.5 °F 89% 29.82 in 10.0 mi SW 3.5 mph - N/A Rain Light Rain
4:15 AM 68.9 °F 65.8 °F 90% 29.83 in 10.0 mi SW 4.6 mph - N/A Rain Light Rain
4:35 AM 68.0 °F 65.8 °F 93% 29.83 in 10.0 mi SSW 4.6 mph - N/A Rain Light Rain
4:55 AM 68.0 °F 66.4 °F 95% 29.83 in 10.0 mi WSW 4.6 mph - N/A   Mostly Cloudy
5:15 AM 68.0 °F 66.4 °F 95% 29.82 in 7.0 mi Calm Calm - 0.01 in   Scattered Clouds
5:35 AM 68.0 °F 66.7 °F 96% 29.82 in 7.0 mi Calm Calm - 0.01 in   Scattered Clouds
5:55 AM 67.3 °F 66.2 °F 96% 29.82 in 7.0 mi Calm Calm - 0.01 in   Scattered Clouds
6:15 AM 67.1 °F 66.2 °F 97% 29.83 in 7.0 mi Calm Calm - N/A   Scattered Clouds
6:35 AM 67.1 °F 66.2 °F 97% 29.84 in 7.0 mi Calm Calm - N/A   Scattered Clouds
6:55 AM 67.3 °F 65.8 °F 95% 29.85 in 10.0 mi West 4.6 mph - N/A   Mostly Cloudy
7:15 AM 68.0 °F 65.7 °F 92% 29.85 in 10.0 mi WNW 5.8 mph - N/A   Mostly Cloudy
7:35 AM 68.2 °F 63.9 °F 86% 29.85 in 10.0 mi WNW 9.2 mph - N/A   Scattered Clouds
7:55 AM 68.0 °F 62.8 °F 83% 29.85 in 10.0 mi NW 6.9 mph - N/A   Scattered Clouds
8:15 AM 68.9 °F 61.0 °F 76% 29.87 in 10.0 mi NW 12.7 mph 18.4 mph N/A   Mostly Cloudy
8:35 AM 68.9 °F 60.3 °F 74% 29.88 in 10.0 mi NW 9.2 mph - N/A   Scattered Clouds
8:55 AM 69.3 °F 59.9 °F 72% 29.88 in 10.0 mi NW 4.6 mph - N/A   Scattered Clouds
9:15 AM 68.7 °F 59.7 °F 73% 29.88 in 10.0 mi NW 6.9 mph - N/A   Mostly Cloudy
9:35 AM 70.5 °F 59.0 °F 67% 29.89 in 10.0 mi NNW 5.8 mph - N/A   Mostly Cloudy
9:55 AM 70.7 °F 57.9 °F 64% 29.89 in 10.0 mi Calm Calm - N/A   Mostly Cloudy
10:15 AM 71.2 °F 55.9 °F 58% 29.88 in 10.0 mi NNW 3.5 mph - N/A   Mostly Cloudy
10:35 AM 72.0 °F 54.7 °F 54% 29.88 in 10.0 mi NW 9.2 mph - N/A   Scattered Clouds
10:55 AM 73.4 °F 51.6 °F 46% 29.89 in 10.0 mi NW 9.2 mph - N/A   Clear
11:15 AM 73.4 °F 50.5 °F 45% 29.89 in 10.0 mi NNW 4.6 mph 18.4 mph N/A   Scattered Clouds
11:35 AM 73.4 °F 52.2 °F 47% 29.89 in 10.0 mi NW 8.1 mph 16.1 mph N/A   Scattered Clouds
11:55 AM 74.3 °F 50.5 °F 43% 29.89 in 10.0 mi WNW 10.4 mph - N/A   Scattered Clouds
12:15 PM 74.8 °F 48.0 °F 39% 29.89 in 10.0 mi NW 9.2 mph - N/A   Scattered Clouds
12:35 PM 75.2 °F 48.7 °F 39% 29.89 in 10.0 mi WNW 9.2 mph - N/A   Clear
12:55 PM 75.4 °F 47.5 °F 37% 29.89 in 10.0 mi North 3.5 mph - N/A   Clear
1:15 PM 76.6 °F 46.9 °F 35% 29.89 in 10.0 mi West 5.8 mph - N/A   Clear
1:35 PM 76.6 °F 48.0 °F 36% 29.88 in 10.0 mi NNW 8.1 mph - N/A   Clear
1:55 PM 77.0 °F 47.7 °F 35% 29.88 in 10.0 mi WNW 6.9 mph - N/A   Clear
2:15 PM 78.1 °F 47.8 °F 34% 29.88 in 10.0 mi WSW 10.4 mph 17.3 mph N/A   Scattered Clouds
2:35 PM 77.7 °F 47.7 °F 35% 29.88 in 10.0 mi West 10.4 mph - N/A   Scattered Clouds
2:55 PM 78.4 °F 46.9 °F 33% 29.88 in 10.0 mi WSW 8.1 mph - N/A   Scattered Clouds
3:15 PM 79.7 °F 46.8 °F 31% 29.88 in 10.0 mi West 11.5 mph 18.4 mph N/A   Scattered Clouds
3:35 PM 79.5 °F 46.4 °F 31% 29.87 in 10.0 mi West 11.5 mph 20.7 mph N/A   Scattered Clouds
3:55 PM 78.6 °F 45.5 °F 31% 29.86 in 10.0 mi WNW 9.2 mph 16.1 mph N/A   Scattered Clouds
4:15 PM 79.2 °F 46.2 °F 31% 29.87 in 10.0 mi West 11.5 mph 16.1 mph N/A   Scattered Clouds
4:35 PM 78.4 °F 46.2 °F 32% 29.86 in 10.0 mi West 8.1 mph 16.1 mph N/A   Scattered Clouds
4:55 PM 79.0 °F 45.5 °F 31% 29.87 in 10.0 mi West 11.5 mph 18.4 mph N/A   Scattered Clouds
5:15 PM 78.4 °F 45.5 °F 31% 29.87 in 10.0 mi West 5.8 mph - N/A   Clear
5:35 PM 78.3 °F 45.7 °F 32% 29.87 in 10.0 mi WNW 10.4 mph - N/A   Scattered Clouds
5:55 PM 78.1 °F 45.7 °F 32% 29.88 in 10.0 mi WNW 11.5 mph - N/A   Scattered Clouds
6:15 PM 77.9 °F 45.5 °F 32% 29.88 in 10.0 mi WNW 10.4 mph - N/A   Scattered Clouds
6:35 PM 77.2 °F 45.9 °F 33% 29.88 in 10.0 mi WNW 8.1 mph - N/A   Clear
6:55 PM 77.0 °F 46.6 °F 34% 29.89 in 10.0 mi WNW 5.8 mph - N/A   Scattered Clouds
7:15 PM 77.0 °F 45.9 °F 33% 29.89 in 10.0 mi WNW 6.9 mph - N/A   Scattered Clouds
7:35 PM 75.7 °F 46.2 °F 35% 29.91 in 10.0 mi NW 5.8 mph - N/A   Scattered Clouds
7:55 PM 73.4 °F 47.8 °F 40% 29.91 in 10.0 mi NW 3.5 mph - N/A   Scattered Clouds
8:15 PM 71.6 °F 47.5 °F 42% 29.92 in 10.0 mi Calm Calm - N/A   Clear
8:35 PM 70.0 °F 48.0 °F 46% 29.93 in 10.0 mi Calm Calm - N/A   Clear
8:55 PM 69.8 °F 48.7 °F 47% 29.94 in 10.0 mi Calm Calm - N/A   Scattered Clouds
9:15 PM 68.0 °F 50.0 °F 52% 29.95 in 10.0 mi Calm Calm - N/A   Mostly Cloudy
9:35 PM 66.2 °F 50.0 °F 56% 29.96 in 10.0 mi Calm Calm - N/A   Mostly Cloudy
9:55 PM 66.9 °F 49.1 °F 53% 29.97 in 10.0 mi Calm Calm - N/A   Scattered Clouds
10:15 PM 66.2 °F 48.7 °F 53% 29.98 in 10.0 mi Calm Calm - N/A   Scattered Clouds
10:35 PM 65.1 °F 48.7 °F 55% 29.99 in 10.0 mi Calm Calm - N/A   Scattered Clouds
10:55 PM 64.6 °F 48.6 °F 56% 29.99 in 10.0 mi Calm Calm - N/A   Mostly Cloudy
11:15 PM 64.2 °F 48.4 °F 56% 30.00 in 10.0 mi Calm Calm - N/A   Scattered Clouds
11:35 PM 62.8 °F 48.0 °F 59% 30.00 in 10.0 mi Calm Calm - N/A   Scattered Clouds
11:55 PM 62.2 °F 47.5 °F 58% 30.00 in 10.0 mi Calm Calm - N/A   Scattered Clouds